Regional Weather Roundup
Issued by NWS

Home | Current Version | Previous Version | Text Only | Print | Product List | Glossary Off
Versions: 1 2 3 4 5 6 7 8 9 10 11 12 13 14 15 16 17 18 19 20 21 22 23 24 25 26 27 28 29 30 31 32 33 34 35 36 37 38 39 40 41 42 43 44 45 46 47 48 49 50

234
ASUS43 KLOT 071303
RWRIL

ILLINOIS REGIONAL WEATHER ROUNDUP
NATIONAL WEATHER SERVICE CHICAGO/ROMEOVILLE IL
700 AM CST SUN FEB 07 2016

NOTE: "FAIR" INDICATES FEW OR NO CLOUDS BELOW 12,000 FEET WITH NO
SIGNIFICANT WEATHER AND/OR OBSTRUCTIONS TO VISIBILITY.

* THESE STATIONS ARE NOT UNDER NWS QUALITY CONTROL. THEY ALSO MAY NOT
  REPORT WEATHER SUCH AS PRECIPITATION OR FOG.

ILZ001-002-007-009-015-016-024-071400-
NORTHWEST ILLINOIS

CITY           SKY/WX    TMP DP  RH WIND       PRES   REMARKS
MOLINE         CLOUDY    37  28  70 SW13      29.84R WCI  29
STERLING*      CLOUDY    36  28  75 SW6       29.82S WCI  31
$$

ILZ003-004-008-010-011-017-018-071400-
NORTH CENTRAL ILLINOIS

CITY           SKY/WX    TMP DP  RH WIND       PRES   REMARKS
ROCKFORD       CLOUDY    37  29  72 S12       29.83F WCI  29
FREEPORT*      CLOUDY    35  29  80 SW20      29.80F WCI  24
DE KALB*       CLOUDY    33  30  88 S12       29.84F WCI  25
$$

ILZ005-006-012>014-019>023-071400-
NORTHEAST ILLINOIS

CITY           SKY/WX    TMP DP  RH WIND       PRES   REMARKS
CHICAGO-OHARE  MOCLDY    39  29  67 SW15      29.85F WCI  31
CHICAGO-MIDWAY MOCLDY    39  28  64 S15       29.87F WCI  31
AURORA         CLOUDY    37  29  72 S12       29.86F WCI  29
LANSING*       CLOUDY    36  30  78 SW14      29.90F WCI  27
WAUKEGAN       CLOUDY    37  29  72 SW16      29.81F WCI  28
DUPAGE AIRPORT CLOUDY    35  28  75 S12       29.85F WCI  27
WHEELING       CLOUDY    39  29  67 SW15      29.85F WCI  31
NORTHERLY ISL    N/A     39  28  65 SW10        N/A  WCI  32
$$

LMZ740>746-071400-
SOUTHERN LAKE MICHIGAN

STATION/POSITION SKY/WX   TEMP    WIND        PRES    VSBY  WAVE
                          AIR SEA DIR/SP/G                  HT/PER
                          (F)     (DEG/KT/KT) (MB)    (MI)  (FT/S)
HARRISON CRIB              40     200/ 20/ 23   N/A
BURNHAM HARBOR             39     180/ 13/ 16   N/A
CALUMET HARBOR             40     200/ 12/ 17 1011.7F
BURNS HARBOR               39     190/ 15/ 18 1013.5F
MICHIGAN CITY              37     160/ 14/ 17   N/A
$$

ILZ025>027-034>036-040-047-049-050-058-095>099-071400-
WEST-CENTRAL ILLINOIS

CITY           SKY/WX    TMP DP  RH WIND       PRES   REMARKS
QUINCY         CLOUDY    38  28  67 SW13      29.92F WCI  30
MACOMB*        PTCLDY    38  29  71 SW17      29.90F WCI  28
$$

ILZ028>032-037-038-041>044-048-051>054-059>061-071400-
CENTRAL ILLINOIS

CITY           SKY/WX    TMP DP  RH WIND       PRES   REMARKS
BLOOMINGTON    CLOUDY    37  31  79 SW17      29.93F WCI  27
DECATUR        PTCLDY    38  26  62 SW17      29.97F WCI  28
PEORIA         CLOUDY    36  28  73 S10       29.91F WCI  28
SPRINGFIELD    CLOUDY    38  28  67 S13       29.96F WCI  30
TAYLORVILLE    NOT AVBL
$$

ILZ033-039-045-046-055>057-062-063-071400-
EAST-CENTRAL ILLINOIS

CITY           SKY/WX    TMP DP  RH WIND       PRES   REMARKS
CHAMPAIGN      PTCLDY    34  28  79 S12       29.97F WCI  25
MATTOON        PTCLDY    37  23  56 SW10      30.00F WCI  30
$$

ILZ079-100>102-071400-
SOUTHWEST ILLINOIS

CITY           SKY/WX    TMP DP  RH WIND       PRES   REMARKS
ALTON            N/A     34  25  69 SW12      30.03S WCI  25
BELLEVILLE     CLEAR     35  24  64 S8        30.04F WCI  28
CAHOKIA*       CLEAR     41  23  48 SW9       30.05F
SPARTA*        CLEAR     36  22  57 S10       30.08F WCI  28
$$

ILZ064>066-069>071-074>076-080>082-084>086-088>090-092>094-071400-
SOUTH-CENTRAL ILLINOIS

CITY           SKY/WX    TMP DP  RH WIND       PRES   REMARKS
CARBONDALE     CLEAR     34  19  54 SW6       30.11F WCI  29
MARION         PTCLDY    34  23  64 S9        30.11S WCI  26
MT. VERNON     CLEAR     32  21  64 S6        30.08F WCI  26
CENTRALIA*     PTCLDY    38  26  61 SW12      30.06S WCI  30
SALEM*         PTCLDY    38  24  57 S10       30.06S WCI  31
$$

ILZ067-068-072-073-078-083-087-091-071400-
SOUTHEAST ILLINOIS

CITY           SKY/WX    TMP DP  RH WIND       PRES   REMARKS
LAWRENCEVILLE  CLOUDY    32  24  72 S8        30.08F WCI  25
HARRISBURG*    CLOUDY    35  25  67 SW5       30.12F WCI  31
ROBINSON*      PTCLDY    36  24  63 S8        30.07F WCI  29
CARMI*         MOCLDY    37  24  57 SW10      30.09F WCI  30
$$

ABBREVIATIONS USED IN REMARKS
   TC - TEMPERATURE IN CELSIUS
  WCI - WIND CHILL INDEX
   HX - HEAT INDEX
  VSB - VISIBILITY
$$





USA.gov is the U.S. government's official web portal to all federal, state and local government web resources and services.